The Dalles, WA

2:08 PM PDT on May 29, 2017 (GMT -0700)
Columbia Gorge Regional-The Dalles

Weather History for KDLS - January, 2013

Change the Weather History Date:

Monday, January 28, 2013

  Actual Average Record
Temperature  
Mean Temperature 40 °F -  
Max Temperature 46 °F 41 °F 60 °F (1992)
Min Temperature 33 °F 28 °F -12 °F (1957)
Degree Days  
Heating Degree Days 26    
Moisture  
Dew Point 34 °F    
Average Humidity 76    
Maximum Humidity 89    
Minimum Humidity 63    
Precipitation  
Precipitation 0.04 in - - ()
Sea Level Pressure  
Sea Level Pressure 30.05 in    
Wind  
Wind Speed 6 mph (NW)    
Max Wind Speed 17 mph    
Max Gust Speed 24 mph    
Visibility 10 miles    
Events Rain    
Averages and records for this station are not official NWS values.
T = Trace of Precipitation, MM = Missing Value Source: NWS Daily Summary

Daily Weather History Graph

Daily Weather History Graph

Search for Another Location

Airport or City:

Trip Planner

Search our weather history database for the weather conditions in past years. The results will help you decide how hot, cold, wet, or windy it might be!

Date:

Astronomy

Jan. 28, 2013 Rise Set
Actual Time 7:30 AM PST 5:05 PM PST
Civil Twilight 6:58 AM PST 5:37 PM PST
Nautical Twilight 6:22 AM PST 6:13 PM PST
Astronomical Twilight 5:47 AM PST 6:48 PM PST
Moon 7:14 PM PST (1/28) 7:51 AM PST (1/28)
Length of Visible Light 10h 39m
Length of Day
9h 35m
Full, 97% of the Moon is Illuminated
Jan 28
Full
Feb 3
Last Quarter
Feb 9
New
Feb 17
First Quarter
Feb 25
Full

Hourly Weather History & Observations

Time (PST) Temp. Windchill Dew Point Humidity Pressure Visibility Wind Dir Wind Speed Gust Speed Precip Events Conditions
12:53 AM 36.0 °F - 32.0 °F 86% 30.04 in 10.0 mi Calm Calm - N/A   Overcast
1:53 AM 33.1 °F 28.7 °F 30.0 °F 89% 30.04 in 10.0 mi SE 4.6 mph - N/A   Partly Cloudy
2:53 AM 33.1 °F - 30.0 °F 89% 30.04 in 10.0 mi Calm Calm - N/A   Clear
3:53 AM 34.0 °F 28.8 °F 30.0 °F 85% 30.04 in 10.0 mi ESE 5.8 mph - N/A   Clear
4:53 AM 39.9 °F - 32.0 °F 73% 30.04 in 10.0 mi Calm Calm - N/A   Clear
5:53 AM 41.0 °F 34.3 °F 33.1 °F 73% 30.05 in 10.0 mi NNW 11.5 mph - N/A   Overcast
6:53 AM 41.0 °F 35.8 °F 33.1 °F 73% 30.05 in 10.0 mi North 8.1 mph - N/A   Overcast
7:53 AM 41.0 °F - 32.0 °F 70% 30.06 in 10.0 mi Calm Calm - N/A   Mostly Cloudy
8:53 AM 39.9 °F 35.8 °F 33.1 °F 77% 30.07 in 10.0 mi South 5.8 mph - N/A   Partly Cloudy
9:53 AM 44.1 °F - 32.0 °F 63% 30.07 in 10.0 mi Calm Calm - N/A   Partly Cloudy
10:53 AM 44.1 °F - 33.1 °F 65% 30.08 in 10.0 mi Calm Calm - N/A   Clear
11:53 AM 45.0 °F 43.5 °F 34.0 °F 65% 30.06 in 10.0 mi South 3.5 mph - N/A   Clear
12:53 PM 46.0 °F 40.2 °F 34.0 °F 63% 30.04 in 10.0 mi NNW 12.7 mph - N/A   Partly Cloudy
1:53 PM 45.0 °F 38.9 °F 36.0 °F 71% 30.04 in 10.0 mi NW 12.7 mph - N/A   Overcast
2:53 PM 44.1 °F 38.1 °F 36.0 °F 73% 30.04 in 10.0 mi NW 11.5 mph - N/A   Overcast
3:53 PM 43.0 °F 36.4 °F 36.0 °F 76% 30.04 in 10.0 mi NNW 12.7 mph - N/A   Overcast
4:53 PM 43.0 °F 40.3 °F 37.0 °F 80% 30.03 in 10.0 mi NW 4.6 mph - N/A   Overcast
5:53 PM 43.0 °F 35.7 °F 37.0 °F 80% 30.03 in 10.0 mi WNW 15.0 mph - 0.00 in Rain Light Rain
6:53 PM 42.1 °F 33.9 °F 36.0 °F 79% 30.04 in 10.0 mi NW 17.3 mph 24.2 mph 0.02 in Rain Light Rain
7:53 PM 42.1 °F 33.9 °F 36.0 °F 79% 30.04 in 10.0 mi NW 17.3 mph 24.2 mph 0.01 in Rain Light Rain
8:53 PM 42.1 °F 34.5 °F 37.0 °F 82% 30.04 in 10.0 mi NW 15.0 mph - 0.01 in   Overcast
9:53 PM 42.1 °F 33.9 °F 36.0 °F 79% 30.03 in 10.0 mi NW 17.3 mph 24.2 mph N/A   Overcast
10:53 PM 42.1 °F 34.2 °F 36.0 °F 79% 30.04 in 10.0 mi NW 16.1 mph - N/A   Mostly Cloudy
11:53 PM 43.0 °F 35.1 °F 35.1 °F 74% 30.05 in 10.0 mi NW 17.3 mph - N/A   Mostly Cloudy